www.pogodaiklimat.ru

Погода и климат >> Архив погоды >> Канада >> Британская Колумбия >> Принс-Джордж


ПОГОДА в Принс-Джордже

  • Прогноз погоды в Принс-Джордже
  • Монитор погоды в Принс-Джордже

АРХИВ ПОГОДЫ в Принс-Джордже

Время (UTC), дата Ветер
(напр.,м/с)
 
Видим.   Явления Облачность Т
(С)
Тd
(С)
f
(%)
Тe
(С)
Тes
(С)
Комфортность P
(гПа)
Po
(гПа)
Тmin
(С)
Tmax
(С)
R
(мм)
R24
(мм)
S
(см)
18 17.06 Ю 2 16 км 9/0 2000 м
[]
+20.6 +9.5 49 +23 +30 комфорт 1014.7 933.9 +9.7 +21.2
21 17.06 С 2 16 км 5/0
[]
+22.3 +10.5 47 +24 +37 комфорт 1012.7 932.2
00 18.06 В 3 16 км {осадки} ясно +18.6 +13.8 74 +19 +26 1012.3 931.5 +9.7 +22.9 3
03 18.06 З 2 16 км гроза {осадки} 10/10 1000 м
[]
+17.2 +14.1 82 +18 +18 1011.7 931.1
06 18.06 З 5 16 км {осадки} 10/0 2000 м
[]
+15.9 +7.2 56 +15 +15 1012.9 932.4 +9.7 +22.9 0.3 231
09 18.06 З 3 16 км ясно +10.8 +5.3 69 +9 +9 1015.7 934.7
12 18.06 ЮЗ 4 16 км ясно +7.4 +4.2 80 +4 +4 1017.6 935.9 +6.6 +22.9
15 18.06 З 6 16 км ясно +12.7 +3.5 53 +10 +12 1018.1 936.6
18 18.06 З 7 16 км 5/5 1500 м
[]
+13.9 +2.8 47 +12 +14 1018.1 936.6 +6.6 +16.0
21 18.06 З 7 16 км 9/0 2000 м
[]
+16.8 +1.2 35 +16 +19 1017.5 935.9
00 19.06 З 4 16 км 5/0 2000 м
[]
+17.8 +1.1 32 +18 +22 1016.2 934.5 +6.6 +18.5
03 19.06 З 6 16 км слаб. дождь 10/10 1000 м
[]
+12.6 +2.6 51 +10 +10 1016.1 934.4
06 19.06 З 3 16 км 9/0 2000 м
[]
+8.4 +2.4 66 +6 +6 1017.0 935.0 +6.6 +18.5 31
09 19.06 ЮЗ 3 16 км 10/10 1000 м
[]
+8.0 +2.0 66 +6 +6 1016.3 934.6
12 19.06 Ю 4 16 км 10/10 1500 м
[]
+7.3 +3.3 76 +4 +4 1016.7 935.0 +7.1 +18.5
15 19.06 З 4 16 км ясно +9.1 +2.5 63 +6 +9 1016.8 934.8
18 19.06 З 5 16 км 10/10 1000 м
[]
+12.3 +1.8 49 +10 +10 1016.1 934.1 +7.1 +13.4
21 19.06 ЮЗ 4 16 км 5/0 2000 м
[]
+14.8 +2.0 42 +14 +22 1015.1 933.3
00 20.06 З 6 16 км {осадки} ясно +14.6 +4.5 51 +13 +16 1014.9 933.1 +7.1 +16.2 1
03 20.06 З 5 16 км {осадки} ясно +13.4 +2.6 48 +12 +12 1015.6 933.8
06 20.06 З 4 16 км 3/0 2000 м
[]
+9.2 +3.4 67 +7 +7 1017.0 935.0 +7.1 +16.2 201
09 20.06 Ю 1 16 км 10/10 1000 м
[]
+6.0 +3.7 85 +5 +5 1018.2 936.0
12 20.06 Ю 1 16 км 10/10 600 м
[]
+5.4 +3.7 89 +4 +4 1019.2 936.9 +4.1 +16.2
15 20.06 С 2 16 км 5/0 2000 м
[]
+8.8 +5.2 78 +7 +10 1019.7 937.5
18 20.06 С 7 16 км 5/5 1000 м
[]
+14.1 +3.4 48 +12 +14 1019.5 937.4 +4.1 +14.7
21 20.06 С 6 16 км 9/9 1500 м
[]
+12.1 +3.9 57 +10 +10 1021.0 938.4
00 21.06 С 7 16 км 5/0 2000 м
[]
+14.2 +4.3 51 +12 +14 1021.1 938.6 +4.1 +16.0
03 21.06 С 4 16 км 9/9 1000 м
[]
+13.5 +5.5 58 +12 +12 1021.9 939.5
06 21.06 С 2 16 км ясно +8.6 +5.0 78 +7 +7 1022.5 940.1 +4.1 +16.0 231
09 21.06 З 1 16 км ясно +4.1 +2.5 89 +4 +4 1023.3 940.4
12 21.06 С 2 16 км ясно +4.6 +3.8 95 +2 +2 1023.2 940.5 +2.5 +16.0
15 21.06 С 3 16 км ясно +10.6 +5.4 70 +9 +12 1023.1 940.8
18 21.06 С 4 16 км ясно +15.9 +6.1 52 +15 +25 1022.1 939.9 +2.5 +16.2
21 21.06 С 4 16 км ясно +19.7 +6.8 43 +21 +32 комфорт 1020.5 938.4
00 22.06 С 4 16 км 3/0 2000 м
[]
+19.8 +5.8 40 +20 +25 1019.4 937.4 +2.5 +22.0
03 22.06 С 3 16 км ясно +19.3 +5.6 41 +20 +21 1017.9 936.4
06 22.06 В 1 16 км 3/0
[]
+11.1 +6.6 74 +11 +11 1018.2 936.5 +2.5 +22.0
09 22.06 Ю 2 16 км 10/0 2000 м
[]
+9.2 +6.5 83 +8 +8 1017.8 936.2
12 22.06 Ю 1 16 км 10/0
[]
+9.8 +7.0 83 +9 +9 1017.3 935.8 +7.8 +22.0
15 22.06 Ю 2 16 км 10/0 2000 м
[]
+11.4 +8.0 80 +10 +12 1017.1 935.7
18 22.06 ЮЗ 2 16 км {осадки} 9/9 1500 м
[]
+16.3 +8.7 61 +17 +18 1016.9 935.3 +7.8 +16.9 0.3
21 22.06 Ю 6 16 км 5/5 600 м
[]
+18.4 +8.8 54 +18 +21 1015.4 933.9
00 23.06 СЗ 3 16 км 9/0 2000 м
[]
+19.3 +7.8 47 +20 +24 1013.8 932.7 +7.8 +20.9
03 23.06 З 7 16 км 5/0 2000 м
[]
+18.0 +6.4 47 +17 +18 1014.0 932.9
06 23.06 З 2 16 км 9/9 1500 м
[]
+14.0 +6.9 62 +14 +14 1014.9 933.8 +7.8 +20.9 3
09 23.06 Ю 3 16 км 10/0 2000 м
[]
+12.4 +4.4 58 +11 +11 1015.5 934.4
12 23.06 Ю 2 16 км 10/10 1000 м
[]
+10.8 +4.8 66 +10 +10 1015.8 934.5 +9.7 +20.9
15 23.06 ЮЗ 4 16 км 10/10 1500 м
[]
+11.1 +4.4 63 +9 +9 1016.1 934.7
18 23.06 З 3 16 км 9/9 1000 м
[]
+13.9 +5.2 56 +13 +14 1016.1 934.6 +9.7 +13.9
21 23.06 Ю 7 16 км 9/9 1500 м
[]
+15.1 +5.8 54 +13 +14 1015.4 933.9
00 24.06 Ю 5 16 км 5/0
[]
+16.6 +4.9 46 +16 +19 1014.3 932.9 +9.7 +17.6
03 24.06 Ю 4 16 км 5/0
[]
+16.1 +4.9 47 +15 +16 1013.5 932.2
06 24.06 Ю 3 16 км 9/0 2000 м
[]
+11.0 +5.6 69 +10 +10 1014.4 932.8 +9.7 +17.6 211
09 24.06 Ю 3 16 км 10/0
[]
+8.9 +5.5 79 +7 +7 1014.8 933.1
12 24.06 Ю 3 16 км ясно +5.1 +3.6 90 +2 +2 1015.4 933.5 +4.4 +17.6
15 24.06 0 16 км ясно +12.1 +6.2 67 1014.7 933.3

 

Местоположение метеостанции Принс-Джордж (Британская Колумбия, Канада): широта 53.88 долгота -122.60 высота над уровнем моря 691 м.

В архиве по умолчанию представлена погода в Принс-Джордже за последнюю неделю. Архивные данные за месяц целиком и за предыдущие месяцы, начиная с января 2011 года, Вы можете получить, выбрав интересующий диапазон дат из раскрывающегося списка и нажав кнопку "Ввод!".


*Определитесь, кто Вы:
робот инопланетянин человек

Внимание! Время в таблицах - всемирное. Для получения местного времени необходимо прибавить поправку, которая равна -8 ч.

Смотрите также архив погоды в соседних городах и на ближайших метеорологических станциях:

Погода в Принс-Джордже (Британская Колумбия, Канада) (5 км)
Погода на Принц-Джордж Радаре (Британская Колумбия, Канада) (38 км)
Погода в Квеснеле (Британская Колумбия, Канада) (96 км)
Погода в Квеснеле (Британская Колумбия, Канада) (97 км)
Погода в Маккензи (Британская Колумбия, Канада) (161 км)
Погода в Уильямс Лейк (Британская Колумбия, Канада) (193 км)
Погода на Озере Скин (Британская Колумбия, Канада) (217 км)
Погода в Аэропорту Пунци Маунтин (Британская Колумбия, Канада) (220 км)
Погода в Бернс Лейк (Британская Колумбия, Канада) (222 км)
Погода в Вилне (Альберта, Канада) (235 км)

Пояснения к столбцам:

Ветер - указаны скорость ветра в м/с - средняя за 10 мин, порывы в срок и между сроками (в фигурных скобках) и направление, откуда дует ветер: С - северный, СВ - северо-восточный, В - восточный, ЮВ - юго-восточный, Ю - южный, ЮЗ - юго-западный, З - западный, СЗ - северо-западный.
Видимость - горизонтальная дальность видимости в метрах или километрах. При видимости от 1 до 10 км при отсутствии осадков обычно наблюдается дымка, при ухудшении видимости до 1 км и менее - туман. В сухую погоду видимость может ухудшаться дымом, пылью или мглою.
Явления - указаны атмосферные явления, наблюдавшиеся в срок или в последний час перед сроком; фигурными скобками обозначены явления, наблюдавшиеся между сроками (за 1-3 часа до срока); квадратными скобками обозначены град или гололедные отложения с указанием их диаметра в мм.
Облачность - указаны через наклонную черту общая и нижняя облачность в баллах и высота нижней границы облаков в метрах; квадратными скобками обозначены формы облаков: Ci - перистые, Cs - перисто-слоистые, Cc - перисто-кучевые, Ac - высококучевые, As - высокослоистые, Sc - слоисто-кучевые, Ns - слоисто-дождевые, Cu - кучевые, Cb - кучево-дождевые. Подробнее классификацию облаков см. в Атласе облаков (PDF).
T - Температура воздуха - температура, измеренная на высоте 2 м над землей.
Td - Температура точки росы - температура, при понижении до которой содержащийся в воздухе водяной пар достигнет насыщения.
f - Относительная влажность воздуха - влажноcть воздуха, измеренная на высоте 2 м над землей.
Te - Эффективная температура - температура, которую ощущает одетый по сезону человек в тени. Характеристика душности погоды. При расчете учитывается влияние влажности воздуха и скорости ветра на теплоощущения человека.
Tes - Эффективная температура на солнце - температура, которую ощущает человек, с поправкой на солнечный нагрев. Характеристика знойности погоды. Зависит от высоты солнца над горизонтом, облачности и скорости ветра. Ночью, в пасмурную погоду, а также при ветре 12 м/с и более поправка равна нулю.
P - Атмосферное давление - приведенное к уровню моря атмосферное давление.
Po - Атмосферное давление - измеренное на уровне метеостанции атмосферное давление.
Tmin - Минимальная температура - минимум температуры воздуха на высоте 2 м над землей.
Tmax - Максимальная температура - максимум температуры воздуха на высоте 2 м над землей.
R - Количество осадков - Количество выпавших осадков за период времени, мм. При наведении курсора мыши на число - период времени, за который выпало указанное количество осадков.
R24 - Количество осадков - Количество выпавших осадков за 24 часа, мм.
S - Снежный покров - Высота снежного покрова, см. При наведении курсора мыши на число - состояние снежного покрова и степень покрытия местности в баллах.